GEFSMA_prec_meanprecacc_030.txt.gz
Total_Precipitation_Accumulation
0.02 0.01 0.01 0.02 0.02 0.05 0.07 0.11 0.12 0.18 0.21 0.13 0.10 0.08 0.11 0.16 0.16 0.20 0.16 0.11 0.08 0.09 0.19 0.25 0.22 0.20 0.18 0.17 0.16 0.14 0.11 0.08 0.10 0.16 0.25 0.30 0.27 0.22 0.17 0.13 0.12 0.09 0.06
0.02 0.02 0.02 0.04 0.04 0.05 0.05 0.09 0.13 0.22 0.26 0.29 0.24 0.13 0.09 0.09 0.11 0.17 0.14 0.10 0.05 0.05 0.08 0.13 0.16 0.17 0.16 0.15 0.12 0.09 0.06 0.06 0.06 0.07 0.10 0.18 0.22 0.20 0.15 0.12 0.10 0.07 0.06
0.02 0.04 0.04 0.07 0.10 0.12 0.15 0.15 0.23 0.29 0.31 0.41 0.29 0.19 0.09 0.07 0.07 0.07 0.09 0.08 0.06 0.06 0.05 0.07 0.09 0.12 0.14 0.15 0.13 0.09 0.05 0.04 0.04 0.05 0.06 0.09 0.14 0.15 0.12 0.10 0.09 0.08 0.08
0.07 0.16 0.16 0.17 0.31 0.28 0.27 0.35 0.49 0.46 0.48 0.48 0.36 0.22 0.10 0.08 0.05 0.04 0.04 0.06 0.09 0.07 0.04 0.06 0.08 0.10 0.13 0.16 0.16 0.16 0.11 0.09 0.06 0.07 0.08 0.10 0.16 0.17 0.12 0.09 0.08 0.06 0.07
0.21 0.34 0.36 0.47 0.54 0.49 0.50 0.51 0.64 0.59 0.49 0.45 0.40 0.29 0.13 0.09 0.05 0.04 0.05 0.04 0.04 0.05 0.06 0.07 0.05 0.07 0.14 0.24 0.26 0.23 0.18 0.15 0.10 0.10 0.12 0.14 0.21 0.22 0.13 0.09 0.09 0.09 0.08
0.39 0.57 0.58 0.65 0.70 0.71 0.69 0.67 0.60 0.62 0.53 0.49 0.48 0.39 0.18 0.08 0.06 0.04 0.04 0.04 0.03 0.03 0.03 0.06 0.10 0.09 0.15 0.29 0.30 0.31 0.29 0.21 0.15 0.13 0.15 0.18 0.25 0.28 0.16 0.11 0.11 0.11 0.12
0.58 0.79 0.76 0.80 0.79 0.75 0.75 0.77 0.66 0.55 0.42 0.49 0.51 0.39 0.16 0.09 0.12 0.05 0.04 0.04 0.05 0.04 0.04 0.07 0.12 0.15 0.20 0.23 0.29 0.30 0.30 0.27 0.21 0.17 0.18 0.20 0.26 0.35 0.24 0.18 0.18 0.14 0.15
0.86 0.92 0.94 0.93 0.89 0.86 0.76 0.67 0.65 0.55 0.42 0.44 0.50 0.50 0.23 0.14 0.14 0.10 0.12 0.19 0.17 0.12 0.11 0.12 0.11 0.19 0.21 0.24 0.28 0.20 0.21 0.29 0.31 0.29 0.26 0.20 0.21 0.31 0.31 0.31 0.32 0.30 0.34
1.27 1.24 1.13 0.97 0.82 0.75 0.67 0.65 0.65 0.60 0.51 0.45 0.53 0.60 0.41 0.26 0.20 0.12 0.17 0.23 0.26 0.25 0.23 0.22 0.19 0.20 0.21 0.26 0.36 0.39 0.22 0.24 0.33 0.40 0.39 0.28 0.19 0.25 0.32 0.37 0.42 0.44 0.48
1.17 1.02 0.89 0.82 0.72 0.69 0.60 0.55 0.55 0.52 0.46 0.46 0.50 0.55 0.61 0.61 0.55 0.26 0.13 0.15 0.23 0.29 0.33 0.27 0.19 0.19 0.23 0.28 0.38 0.59 0.44 0.27 0.26 0.37 0.41 0.34 0.26 0.24 0.26 0.30 0.40 0.46 0.45
0.85 0.72 0.65 0.62 0.57 0.56 0.49 0.46 0.44 0.41 0.41 0.42 0.49 0.57 0.64 0.72 0.79 0.68 0.39 0.33 0.36 0.36 0.36 0.26 0.21 0.22 0.23 0.30 0.39 0.46 0.55 0.47 0.39 0.31 0.29 0.32 0.32 0.28 0.30 0.41 0.50 0.59 0.59
0.50 0.40 0.37 0.39 0.45 0.50 0.45 0.41 0.38 0.37 0.40 0.47 0.51 0.55 0.60 0.62 0.70 0.78 0.60 0.47 0.38 0.33 0.32 0.28 0.27 0.31 0.30 0.32 0.39 0.49 0.49 0.38 0.32 0.31 0.28 0.27 0.28 0.28 0.29 0.38 0.53 0.63 0.69
0.37 0.31 0.27 0.29 0.35 0.42 0.38 0.33 0.33 0.39 0.45 0.49 0.52 0.55 0.61 0.63 0.66 0.74 0.71 0.63 0.51 0.43 0.38 0.35 0.27 0.22 0.18 0.20 0.29 0.29 0.23 0.20 0.19 0.20 0.20 0.19 0.20 0.22 0.27 0.34 0.44 0.52 0.58
0.35 0.34 0.30 0.30 0.31 0.35 0.34 0.33 0.30 0.35 0.41 0.44 0.42 0.49 0.59 0.64 0.70 0.81 0.82 0.74 0.62 0.52 0.43 0.35 0.24 0.18 0.15 0.17 0.18 0.13 0.14 0.12 0.08 0.08 0.09 0.10 0.12 0.17 0.26 0.29 0.32 0.39 0.42
0.30 0.34 0.33 0.34 0.38 0.42 0.44 0.46 0.47 0.50 0.58 0.61 0.61 0.64 0.67 0.64 0.61 0.65 0.67 0.64 0.60 0.48 0.33 0.23 0.19 0.19 0.16 0.19 0.16 0.14 0.24 0.14 0.05 0.04 0.05 0.05 0.09 0.16 0.18 0.16 0.18 0.23 0.28
0.25 0.31 0.37 0.39 0.40 0.40 0.42 0.50 0.67 0.78 0.81 0.79 0.76 0.78 0.78 0.71 0.65 0.63 0.55 0.51 0.53 0.45 0.27 0.18 0.19 0.20 0.18 0.17 0.15 0.15 0.17 0.11 0.06 0.04 0.03 0.04 0.06 0.09 0.09 0.10 0.13 0.14 0.17
0.25 0.28 0.34 0.38 0.40 0.41 0.41 0.44 0.55 0.67 0.71 0.67 0.63 0.65 0.62 0.53 0.45 0.40 0.36 0.37 0.40 0.37 0.27 0.22 0.24 0.22 0.20 0.23 0.25 0.19 0.16 0.13 0.12 0.07 0.03 0.03 0.04 0.05 0.06 0.09 0.12 0.14 0.17
0.25 0.25 0.26 0.29 0.31 0.35 0.38 0.45 0.53 0.55 0.54 0.49 0.40 0.34 0.28 0.20 0.17 0.14 0.15 0.17 0.19 0.24 0.27 0.27 0.33 0.30 0.26 0.28 0.34 0.32 0.23 0.17 0.17 0.15 0.10 0.07 0.05 0.05 0.06 0.08 0.13 0.18 0.22
0.19 0.19 0.19 0.23 0.30 0.40 0.47 0.50 0.50 0.46 0.39 0.33 0.28 0.22 0.14 0.08 0.05 0.03 0.03 0.03 0.04 0.08 0.17 0.23 0.30 0.32 0.28 0.26 0.30 0.35 0.37 0.31 0.24 0.19 0.16 0.13 0.10 0.08 0.08 0.08 0.12 0.20 0.26
0.13 0.15 0.19 0.24 0.32 0.40 0.46 0.47 0.42 0.36 0.27 0.19 0.14 0.10 0.06 0.03 0.02 0.01 0.01 0.01 0.02 0.08 0.17 0.22 0.27 0.30 0.31 0.26 0.27 0.34 0.46 0.45 0.38 0.31 0.26 0.22 0.21 0.18 0.14 0.12 0.12 0.15 0.26
0.14 0.16 0.19 0.23 0.25 0.28 0.31 0.25 0.20 0.17 0.11 0.06 0.04 0.02 0.02 0.01 0.01 0.00 0.00 0.00 0.01 0.06 0.11 0.13 0.16 0.22 0.28 0.31 0.30 0.35 0.50 0.56 0.53 0.44 0.37 0.30 0.27 0.24 0.21 0.17 0.14 0.14 0.21
0.10 0.12 0.15 0.19 0.17 0.17 0.23 0.15 0.07 0.05 0.04 0.03 0.02 0.01 0.01 0.01 0.00 0.00 0.00 0.00 0.00 0.01 0.03 0.06 0.08 0.14 0.22 0.31 0.40 0.44 0.50 0.53 0.55 0.55 0.51 0.46 0.40 0.37 0.36 0.31 0.21 0.17 0.17
0.06 0.06 0.07 0.05 0.05 0.05 0.09 0.06 0.02 0.02 0.03 0.02 0.01 0.00 0.00 0.00 0.00 0.01 0.01 0.00 0.00 0.00 0.01 0.03 0.03 0.05 0.07 0.11 0.20 0.31 0.48 0.66 0.77 0.75 0.73 0.79 0.66 0.55 0.50 0.42 0.25 0.17 0.16
0.05 0.03 0.02 0.01 0.01 0.01 0.02 0.02 0.01 0.01 0.01 0.01 0.00 0.00 0.00 0.00 0.00 0.00 0.01 0.01 0.00 0.00 0.00 0.01 0.01 0.01 0.01 0.03 0.07 0.12 0.22 0.44 0.69 0.82 0.83 0.87 0.86 0.79 0.68 0.57 0.40 0.25 0.19
0.06 0.04 0.02 0.00 0.00 0.00 0.00 0.00 0.00 0.01 0.00 0.00 0.00 0.00 0.00 0.00 0.00 0.00 0.01 0.02 0.02 0.01 0.00 0.00 0.00 0.00 0.00 0.00 0.01 0.03 0.04 0.10 0.24 0.39 0.58 0.78 0.84 0.82 0.79 0.70 0.53 0.34 0.22
0.07 0.04 0.02 0.01 0.00 0.00 0.00 0.00 0.00 0.00 0.01 0.00 0.00 0.00 0.00 0.00 0.00 0.00 0.01 0.01 0.01 0.01 0.01 0.00 0.00 0.00 0.01 0.00 0.00 0.01 0.01 0.02 0.06 0.11 0.15 0.30 0.52 0.66 0.79 0.80 0.71 0.57 0.42

GEFSMA_prec_meanprecacc_036.txt.gz
Total_Precipitation_Accumulation
0.02 0.01 0.02 0.02 0.03 0.05 0.08 0.13 0.17 0.24 0.28 0.19 0.14 0.11 0.13 0.18 0.18 0.22 0.18 0.11 0.09 0.11 0.23 0.32 0.30 0.28 0.25 0.22 0.22 0.20 0.17 0.14 0.16 0.20 0.29 0.35 0.35 0.33 0.29 0.26 0.23 0.18 0.14
0.05 0.06 0.06 0.07 0.08 0.10 0.12 0.19 0.26 0.37 0.40 0.41 0.33 0.21 0.18 0.16 0.16 0.21 0.17 0.13 0.06 0.06 0.10 0.18 0.24 0.25 0.23 0.22 0.18 0.15 0.12 0.12 0.12 0.11 0.14 0.22 0.26 0.26 0.24 0.22 0.20 0.17 0.13
0.14 0.17 0.14 0.16 0.24 0.32 0.36 0.39 0.49 0.54 0.51 0.58 0.44 0.37 0.28 0.23 0.19 0.16 0.15 0.13 0.10 0.07 0.06 0.09 0.15 0.20 0.23 0.26 0.24 0.19 0.13 0.09 0.09 0.10 0.10 0.12 0.17 0.18 0.16 0.16 0.16 0.15 0.13
0.31 0.40 0.35 0.36 0.63 0.67 0.66 0.75 0.86 0.77 0.73 0.72 0.58 0.45 0.33 0.27 0.21 0.16 0.10 0.11 0.12 0.08 0.05 0.07 0.11 0.16 0.22 0.29 0.33 0.32 0.22 0.16 0.13 0.12 0.13 0.13 0.19 0.20 0.14 0.12 0.11 0.10 0.09
0.51 0.67 0.63 0.78 1.00 1.02 1.00 0.99 1.07 0.98 0.81 0.75 0.68 0.53 0.34 0.26 0.18 0.14 0.10 0.07 0.05 0.06 0.06 0.08 0.07 0.11 0.22 0.38 0.43 0.39 0.31 0.26 0.18 0.17 0.18 0.19 0.26 0.24 0.15 0.11 0.11 0.11 0.09
0.71 0.97 0.91 0.98 1.15 1.23 1.19 1.15 1.05 1.00 0.86 0.81 0.77 0.58 0.32 0.19 0.15 0.11 0.08 0.06 0.04 0.03 0.04 0.07 0.11 0.10 0.19 0.37 0.40 0.45 0.44 0.35 0.25 0.21 0.23 0.25 0.32 0.32 0.18 0.11 0.12 0.12 0.13
0.79 1.08 1.05 1.14 1.21 1.16 1.12 1.17 1.09 0.91 0.71 0.82 0.82 0.57 0.27 0.19 0.19 0.10 0.07 0.06 0.06 0.05 0.04 0.08 0.13 0.17 0.22 0.26 0.36 0.40 0.42 0.37 0.29 0.26 0.28 0.30 0.36 0.41 0.26 0.19 0.19 0.15 0.16
1.01 1.09 1.13 1.15 1.19 1.20 1.07 0.99 1.01 0.88 0.69 0.76 0.83 0.75 0.36 0.22 0.20 0.15 0.16 0.21 0.20 0.14 0.13 0.14 0.15 0.23 0.26 0.29 0.33 0.24 0.25 0.36 0.40 0.39 0.37 0.31 0.30 0.38 0.34 0.32 0.33 0.31 0.34
1.35 1.33 1.24 1.13 1.00 0.99 0.89 0.88 0.95 0.92 0.79 0.74 0.86 0.93 0.63 0.39 0.30 0.20 0.22 0.26 0.28 0.27 0.26 0.26 0.25 0.29 0.29 0.32 0.40 0.43 0.25 0.28 0.40 0.53 0.52 0.40 0.28 0.31 0.37 0.40 0.44 0.45 0.48
1.19 1.05 0.94 0.90 0.84 0.83 0.73 0.71 0.76 0.74 0.70 0.69 0.74 0.82 0.88 0.82 0.68 0.33 0.17 0.18 0.25 0.31 0.35 0.31 0.25 0.26 0.30 0.36 0.45 0.65 0.49 0.31 0.29 0.43 0.51 0.45 0.37 0.32 0.33 0.37 0.47 0.49 0.46
0.85 0.72 0.66 0.64 0.61 0.60 0.55 0.53 0.52 0.51 0.53 0.55 0.63 0.71 0.79 0.85 0.88 0.73 0.42 0.36 0.39 0.38 0.40 0.32 0.28 0.28 0.31 0.37 0.46 0.52 0.60 0.51 0.42 0.34 0.33 0.40 0.45 0.42 0.44 0.56 0.64 0.69 0.65
0.50 0.40 0.37 0.39 0.45 0.51 0.47 0.43 0.41 0.41 0.45 0.52 0.57 0.62 0.68 0.69 0.75 0.82 0.63 0.49 0.40 0.36 0.37 0.37 0.35 0.37 0.34 0.35 0.43 0.53 0.52 0.41 0.35 0.34 0.31 0.32 0.38 0.43 0.48 0.61 0.76 0.86 0.88
0.37 0.31 0.27 0.29 0.36 0.42 0.39 0.34 0.34 0.41 0.48 0.52 0.55 0.59 0.65 0.66 0.69 0.77 0.74 0.65 0.53 0.46 0.44 0.45 0.36 0.27 0.21 0.22 0.31 0.30 0.24 0.21 0.20 0.22 0.22 0.22 0.26 0.33 0.44 0.57 0.70 0.78 0.83
0.35 0.34 0.30 0.30 0.32 0.36 0.34 0.34 0.32 0.37 0.44 0.46 0.44 0.51 0.62 0.67 0.73 0.84 0.85 0.77 0.65 0.56 0.49 0.45 0.35 0.23 0.17 0.19 0.18 0.13 0.14 0.12 0.09 0.08 0.10 0.10 0.14 0.22 0.35 0.43 0.51 0.61 0.66
0.30 0.34 0.33 0.34 0.38 0.43 0.45 0.49 0.50 0.54 0.62 0.65 0.66 0.69 0.72 0.69 0.66 0.70 0.71 0.68 0.66 0.54 0.41 0.32 0.28 0.23 0.18 0.20 0.16 0.14 0.24 0.14 0.05 0.04 0.05 0.06 0.10 0.18 0.22 0.22 0.27 0.35 0.41
0.25 0.31 0.37 0.39 0.41 0.41 0.44 0.53 0.70 0.82 0.86 0.86 0.84 0.87 0.86 0.80 0.72 0.72 0.65 0.63 0.65 0.54 0.34 0.25 0.24 0.23 0.20 0.17 0.15 0.15 0.18 0.11 0.06 0.04 0.03 0.04 0.06 0.09 0.10 0.12 0.16 0.19 0.23
0.25 0.28 0.34 0.38 0.40 0.42 0.43 0.48 0.59 0.74 0.81 0.80 0.78 0.80 0.76 0.66 0.58 0.52 0.49 0.52 0.54 0.47 0.34 0.26 0.27 0.24 0.21 0.24 0.25 0.19 0.16 0.13 0.12 0.07 0.03 0.03 0.04 0.05 0.06 0.09 0.12 0.15 0.19
0.25 0.26 0.26 0.29 0.32 0.36 0.40 0.48 0.58 0.64 0.67 0.64 0.58 0.53 0.48 0.39 0.33 0.29 0.28 0.29 0.30 0.32 0.33 0.30 0.35 0.32 0.26 0.28 0.34 0.32 0.23 0.17 0.17 0.15 0.10 0.07 0.05 0.05 0.06 0.08 0.13 0.18 0.22
0.19 0.19 0.19 0.24 0.31 0.43 0.51 0.56 0.58 0.58 0.56 0.55 0.55 0.52 0.41 0.29 0.22 0.18 0.15 0.13 0.11 0.13 0.20 0.24 0.31 0.33 0.29 0.26 0.30 0.36 0.37 0.31 0.24 0.19 0.16 0.13 0.10 0.08 0.08 0.08 0.12 0.20 0.26
0.13 0.15 0.19 0.25 0.34 0.43 0.51 0.55 0.54 0.52 0.46 0.41 0.40 0.38 0.33 0.25 0.17 0.12 0.10 0.07 0.05 0.10 0.18 0.23 0.27 0.30 0.31 0.26 0.27 0.34 0.46 0.45 0.38 0.31 0.26 0.22 0.22 0.18 0.14 0.12 0.12 0.16 0.26
0.14 0.16 0.19 0.24 0.27 0.30 0.35 0.31 0.27 0.27 0.24 0.20 0.18 0.16 0.16 0.15 0.13 0.09 0.06 0.04 0.03 0.07 0.12 0.14 0.17 0.22 0.28 0.31 0.30 0.35 0.50 0.56 0.53 0.44 0.37 0.30 0.27 0.24 0.21 0.17 0.14 0.14 0.21
0.10 0.12 0.16 0.19 0.19 0.18 0.25 0.18 0.10 0.08 0.09 0.09 0.11 0.11 0.09 0.08 0.08 0.07 0.05 0.04 0.03 0.03 0.04 0.06 0.08 0.14 0.22 0.31 0.40 0.44 0.50 0.53 0.55 0.55 0.51 0.46 0.40 0.37 0.36 0.31 0.21 0.17 0.18
0.06 0.06 0.07 0.05 0.06 0.07 0.12 0.10 0.04 0.04 0.04 0.04 0.04 0.06 0.05 0.04 0.03 0.03 0.03 0.03 0.02 0.02 0.02 0.04 0.04 0.05 0.07 0.11 0.20 0.31 0.48 0.66 0.77 0.75 0.73 0.79 0.66 0.55 0.50 0.42 0.25 0.17 0.16
0.05 0.03 0.02 0.01 0.01 0.02 0.04 0.05 0.04 0.03 0.03 0.03 0.03 0.02 0.02 0.01 0.01 0.01 0.02 0.02 0.01 0.00 0.00 0.01 0.01 0.01 0.01 0.03 0.07 0.12 0.22 0.44 0.69 0.82 0.83 0.87 0.86 0.79 0.68 0.57 0.40 0.25 0.19
0.06 0.04 0.02 0.00 0.00 0.00 0.01 0.01 0.01 0.02 0.02 0.01 0.01 0.01 0.01 0.01 0.01 0.00 0.01 0.02 0.02 0.01 0.00 0.00 0.00 0.00 0.00 0.00 0.01 0.03 0.04 0.10 0.24 0.39 0.58 0.78 0.84 0.82 0.79 0.70 0.53 0.34 0.22
0.09 0.05 0.02 0.01 0.00 0.00 0.00 0.00 0.00 0.01 0.01 0.01 0.00 0.01 0.01 0.00 0.00 0.00 0.01 0.01 0.01 0.01 0.01 0.00 0.00 0.00 0.01 0.00 0.00 0.01 0.01 0.02 0.06 0.11 0.15 0.30 0.52 0.66 0.79 0.80 0.71 0.57 0.42

GEFSMA_prec_meanprecacc_042.txt.gz
Total_Precipitation_Accumulation
0.04 0.04 0.03 0.04 0.05 0.10 0.13 0.22 0.28 0.41 0.46 0.36 0.27 0.23 0.23 0.30 0.29 0.33 0.25 0.16 0.14 0.17 0.33 0.43 0.39 0.37 0.33 0.30 0.29 0.28 0.26 0.23 0.24 0.26 0.35 0.40 0.39 0.37 0.35 0.34 0.31 0.26 0.23
0.10 0.13 0.12 0.14 0.15 0.19 0.24 0.35 0.48 0.62 0.61 0.60 0.47 0.34 0.31 0.30 0.27 0.32 0.26 0.20 0.11 0.10 0.16 0.27 0.34 0.35 0.32 0.31 0.26 0.22 0.19 0.19 0.18 0.15 0.17 0.25 0.29 0.29 0.28 0.29 0.27 0.24 0.20
0.23 0.26 0.23 0.25 0.36 0.47 0.51 0.55 0.69 0.79 0.70 0.74 0.57 0.51 0.42 0.35 0.28 0.25 0.25 0.21 0.15 0.10 0.08 0.13 0.21 0.26 0.30 0.33 0.31 0.26 0.18 0.14 0.13 0.12 0.12 0.13 0.19 0.20 0.18 0.19 0.20 0.19 0.17
0.44 0.53 0.45 0.46 0.77 0.83 0.82 0.93 1.06 1.01 0.93 0.90 0.71 0.58 0.44 0.37 0.29 0.23 0.18 0.18 0.16 0.10 0.06 0.08 0.13 0.17 0.24 0.32 0.39 0.39 0.28 0.19 0.15 0.15 0.15 0.15 0.20 0.21 0.16 0.14 0.13 0.12 0.11
0.64 0.80 0.73 0.86 1.14 1.16 1.11 1.12 1.26 1.22 1.05 0.98 0.88 0.67 0.44 0.34 0.24 0.19 0.14 0.10 0.08 0.08 0.08 0.09 0.08 0.12 0.22 0.39 0.46 0.43 0.37 0.29 0.21 0.20 0.21 0.22 0.28 0.26 0.17 0.12 0.13 0.12 0.10
0.81 1.08 0.98 1.05 1.27 1.35 1.30 1.28 1.22 1.24 1.07 1.04 0.99 0.73 0.44 0.28 0.22 0.16 0.11 0.08 0.06 0.05 0.05 0.08 0.12 0.11 0.19 0.37 0.41 0.47 0.49 0.40 0.29 0.24 0.27 0.30 0.36 0.35 0.20 0.13 0.13 0.13 0.13
0.82 1.12 1.10 1.20 1.30 1.26 1.23 1.32 1.29 1.16 0.93 1.06 1.08 0.75 0.40 0.29 0.27 0.15 0.10 0.09 0.08 0.06 0.05 0.08 0.14 0.17 0.22 0.26 0.37 0.41 0.44 0.42 0.35 0.30 0.33 0.36 0.44 0.48 0.30 0.20 0.19 0.15 0.16
1.01 1.10 1.15 1.17 1.23 1.25 1.15 1.10 1.17 1.06 0.85 0.97 1.04 0.95 0.50 0.32 0.27 0.21 0.21 0.26 0.23 0.17 0.15 0.15 0.16 0.24 0.26 0.30 0.35 0.26 0.26 0.39 0.46 0.45 0.43 0.36 0.37 0.45 0.38 0.36 0.34 0.31 0.34
1.35 1.33 1.25 1.14 1.02 1.01 0.91 0.92 1.02 1.01 0.90 0.87 1.00 1.10 0.78 0.49 0.41 0.30 0.31 0.32 0.32 0.30 0.28 0.28 0.26 0.30 0.31 0.35 0.44 0.47 0.28 0.31 0.44 0.59 0.61 0.46 0.34 0.37 0.42 0.45 0.48 0.47 0.49
1.19 1.05 0.94 0.91 0.84 0.84 0.74 0.72 0.79 0.79 0.76 0.74 0.81 0.90 0.98 0.95 0.82 0.43 0.25 0.22 0.27 0.33 0.37 0.33 0.27 0.28 0.33 0.39 0.50 0.72 0.56 0.39 0.35 0.48 0.57 0.51 0.42 0.36 0.37 0.43 0.56 0.57 0.49
0.85 0.73 0.66 0.65 0.61 0.61 0.56 0.54 0.54 0.53 0.56 0.59 0.67 0.76 0.85 0.93 0.95 0.80 0.47 0.39 0.41 0.40 0.42 0.36 0.32 0.33 0.35 0.41 0.52 0.58 0.67 0.59 0.50 0.39 0.38 0.44 0.50 0.47 0.48 0.64 0.79 0.87 0.79
0.50 0.40 0.37 0.40 0.46 0.51 0.47 0.44 0.43 0.44 0.48 0.55 0.61 0.67 0.72 0.73 0.78 0.86 0.67 0.54 0.45 0.40 0.41 0.42 0.41 0.43 0.39 0.40 0.46 0.56 0.55 0.45 0.41 0.39 0.35 0.36 0.42 0.48 0.55 0.72 0.97 1.13 1.15
0.37 0.31 0.27 0.29 0.36 0.43 0.40 0.36 0.37 0.44 0.51 0.56 0.59 0.64 0.70 0.71 0.75 0.84 0.80 0.71 0.60 0.53 0.52 0.53 0.43 0.32 0.24 0.25 0.33 0.31 0.25 0.22 0.22 0.24 0.25 0.27 0.31 0.39 0.54 0.71 0.87 1.01 1.11
0.35 0.34 0.30 0.31 0.32 0.36 0.35 0.35 0.34 0.40 0.47 0.51 0.49 0.58 0.69 0.74 0.80 0.91 0.92 0.86 0.73 0.65 0.60 0.55 0.42 0.29 0.22 0.22 0.19 0.14 0.15 0.12 0.09 0.09 0.11 0.12 0.18 0.26 0.42 0.56 0.69 0.81 0.90
0.30 0.34 0.33 0.34 0.38 0.43 0.46 0.50 0.51 0.56 0.66 0.70 0.72 0.76 0.81 0.78 0.75 0.79 0.81 0.79 0.77 0.65 0.54 0.44 0.37 0.30 0.24 0.24 0.19 0.17 0.25 0.14 0.05 0.04 0.05 0.07 0.11 0.20 0.25 0.29 0.40 0.51 0.61
0.25 0.31 0.38 0.39 0.41 0.41 0.44 0.54 0.72 0.85 0.90 0.91 0.91 0.94 0.94 0.89 0.83 0.83 0.78 0.77 0.80 0.70 0.48 0.35 0.33 0.31 0.26 0.21 0.18 0.18 0.19 0.11 0.06 0.04 0.03 0.04 0.07 0.10 0.11 0.14 0.20 0.28 0.37
0.25 0.28 0.34 0.38 0.41 0.42 0.44 0.49 0.62 0.78 0.86 0.86 0.85 0.88 0.84 0.76 0.71 0.67 0.64 0.68 0.72 0.66 0.48 0.35 0.35 0.33 0.28 0.29 0.30 0.24 0.19 0.15 0.12 0.07 0.04 0.03 0.04 0.05 0.06 0.09 0.13 0.17 0.23
0.26 0.26 0.26 0.29 0.32 0.36 0.41 0.49 0.60 0.67 0.71 0.70 0.66 0.62 0.58 0.51 0.47 0.44 0.45 0.46 0.46 0.49 0.47 0.42 0.44 0.39 0.33 0.34 0.38 0.35 0.26 0.19 0.18 0.15 0.10 0.07 0.05 0.05 0.06 0.08 0.13 0.18 0.23
0.20 0.20 0.20 0.24 0.32 0.43 0.51 0.57 0.60 0.62 0.60 0.61 0.62 0.61 0.51 0.42 0.36 0.31 0.30 0.28 0.25 0.27 0.34 0.38 0.42 0.40 0.34 0.30 0.33 0.37 0.38 0.32 0.24 0.19 0.16 0.13 0.10 0.08 0.08 0.08 0.12 0.20 0.26
0.14 0.16 0.20 0.26 0.34 0.43 0.51 0.56 0.55 0.53 0.49 0.45 0.46 0.47 0.45 0.39 0.32 0.27 0.25 0.23 0.20 0.23 0.30 0.35 0.38 0.38 0.36 0.30 0.29 0.36 0.48 0.46 0.39 0.32 0.27 0.22 0.22 0.18 0.14 0.12 0.12 0.16 0.26
0.15 0.17 0.20 0.25 0.28 0.31 0.35 0.31 0.28 0.28 0.26 0.23 0.23 0.26 0.29 0.31 0.31 0.26 0.22 0.22 0.22 0.23 0.24 0.24 0.25 0.29 0.33 0.35 0.33 0.36 0.51 0.56 0.53 0.44 0.37 0.30 0.28 0.24 0.21 0.17 0.14 0.14 0.21
0.11 0.14 0.18 0.21 0.20 0.19 0.25 0.18 0.10 0.09 0.10 0.12 0.15 0.18 0.21 0.22 0.24 0.24 0.21 0.19 0.20 0.19 0.16 0.14 0.14 0.20 0.26 0.34 0.41 0.45 0.50 0.53 0.55 0.55 0.51 0.46 0.40 0.37 0.36 0.31 0.21 0.17 0.18
0.08 0.09 0.09 0.08 0.08 0.09 0.13 0.10 0.04 0.04 0.05 0.05 0.06 0.10 0.13 0.17 0.16 0.14 0.13 0.11 0.10 0.09 0.09 0.09 0.07 0.08 0.09 0.12 0.20 0.31 0.48 0.66 0.77 0.75 0.73 0.79 0.67 0.55 0.50 0.42 0.25 0.17 0.16
0.09 0.08 0.06 0.05 0.05 0.05 0.04 0.05 0.04 0.03 0.04 0.04 0.04 0.04 0.05 0.06 0.06 0.06 0.06 0.05 0.04 0.03 0.03 0.03 0.03 0.02 0.02 0.03 0.07 0.12 0.22 0.44 0.69 0.82 0.83 0.87 0.86 0.79 0.68 0.57 0.40 0.25 0.19
0.12 0.11 0.09 0.08 0.07 0.06 0.03 0.01 0.02 0.03 0.03 0.03 0.03 0.03 0.03 0.02 0.02 0.02 0.03 0.04 0.03 0.02 0.01 0.01 0.01 0.00 0.00 0.00 0.01 0.03 0.04 0.10 0.24 0.39 0.58 0.78 0.84 0.82 0.80 0.70 0.53 0.34 0.22
0.17 0.15 0.13 0.11 0.10 0.09 0.06 0.01 0.01 0.03 0.03 0.02 0.03 0.03 0.02 0.01 0.01 0.01 0.03 0.03 0.02 0.02 0.01 0.00 0.00 0.00 0.01 0.00 0.00 0.01 0.01 0.02 0.06 0.11 0.15 0.30 0.52 0.66 0.79 0.80 0.71 0.57 0.43

GEFSMA_prec_meanprecacc_048.txt.gz
Total_Precipitation_Accumulation
0.10 0.12 0.12 0.12 0.10 0.17 0.26 0.34 0.37 0.53 0.58 0.46 0.34 0.26 0.26 0.33 0.32 0.35 0.28 0.20 0.17 0.20 0.37 0.47 0.43 0.41 0.38 0.35 0.34 0.32 0.30 0.27 0.27 0.28 0.36 0.41 0.40 0.37 0.35 0.34 0.31 0.27 0.25
0.21 0.24 0.24 0.28 0.27 0.33 0.37 0.47 0.61 0.81 0.78 0.76 0.57 0.42 0.37 0.34 0.31 0.37 0.32 0.28 0.20 0.16 0.20 0.32 0.38 0.38 0.36 0.35 0.30 0.25 0.23 0.23 0.21 0.17 0.18 0.26 0.30 0.30 0.28 0.29 0.28 0.24 0.21
0.38 0.40 0.36 0.38 0.52 0.64 0.69 0.71 0.87 1.04 0.87 0.91 0.72 0.64 0.53 0.45 0.36 0.33 0.32 0.28 0.24 0.19 0.15 0.18 0.25 0.29 0.33 0.36 0.34 0.29 0.20 0.16 0.15 0.14 0.12 0.14 0.19 0.21 0.18 0.19 0.20 0.19 0.18
0.51 0.62 0.54 0.55 0.91 1.00 1.01 1.11 1.25 1.24 1.13 1.11 0.95 0.77 0.59 0.51 0.41 0.33 0.27 0.26 0.24 0.16 0.13 0.14 0.17 0.20 0.27 0.34 0.41 0.41 0.30 0.21 0.16 0.16 0.16 0.15 0.21 0.22 0.16 0.14 0.13 0.12 0.11
0.66 0.84 0.77 0.92 1.23 1.26 1.22 1.24 1.47 1.42 1.25 1.22 1.14 0.88 0.59 0.47 0.34 0.29 0.25 0.20 0.20 0.19 0.15 0.15 0.13 0.15 0.25 0.42 0.48 0.46 0.40 0.31 0.22 0.20 0.21 0.23 0.29 0.26 0.17 0.12 0.13 0.12 0.10
0.81 1.09 1.00 1.08 1.31 1.40 1.36 1.35 1.32 1.36 1.21 1.22 1.17 0.90 0.59 0.39 0.33 0.27 0.22 0.17 0.13 0.11 0.11 0.12 0.16 0.14 0.22 0.40 0.44 0.49 0.50 0.41 0.30 0.25 0.28 0.31 0.37 0.36 0.20 0.13 0.13 0.13 0.13
0.82 1.13 1.10 1.20 1.31 1.27 1.25 1.34 1.34 1.23 1.01 1.18 1.21 0.87 0.52 0.38 0.34 0.22 0.18 0.14 0.13 0.09 0.08 0.11 0.17 0.21 0.26 0.30 0.40 0.43 0.46 0.45 0.37 0.32 0.34 0.37 0.46 0.49 0.30 0.21 0.20 0.15 0.17
1.01 1.10 1.15 1.17 1.23 1.26 1.15 1.11 1.19 1.08 0.89 1.05 1.13 1.05 0.58 0.38 0.31 0.24 0.24 0.28 0.25 0.20 0.17 0.18 0.19 0.27 0.31 0.37 0.44 0.30 0.28 0.42 0.48 0.48 0.45 0.38 0.40 0.49 0.42 0.38 0.36 0.33 0.36
1.35 1.33 1.25 1.14 1.02 1.01 0.92 0.93 1.03 1.04 0.92 0.92 1.08 1.20 0.87 0.57 0.49 0.35 0.35 0.35 0.35 0.34 0.31 0.31 0.29 0.34 0.35 0.40 0.51 0.54 0.32 0.35 0.47 0.62 0.64 0.50 0.38 0.42 0.49 0.51 0.53 0.51 0.53
1.19 1.05 0.94 0.91 0.85 0.84 0.75 0.73 0.80 0.81 0.79 0.77 0.85 0.97 1.05 1.04 0.91 0.49 0.31 0.27 0.32 0.37 0.40 0.35 0.29 0.32 0.38 0.45 0.58 0.79 0.62 0.43 0.38 0.50 0.61 0.56 0.47 0.42 0.44 0.52 0.66 0.66 0.55
0.85 0.73 0.66 0.65 0.62 0.62 0.56 0.55 0.55 0.55 0.58 0.61 0.70 0.81 0.92 1.01 1.04 0.88 0.52 0.46 0.48 0.45 0.45 0.38 0.35 0.37 0.40 0.50 0.63 0.66 0.74 0.64 0.54 0.42 0.41 0.48 0.55 0.53 0.56 0.74 0.94 1.04 0.93
0.50 0.40 0.37 0.40 0.46 0.52 0.48 0.45 0.44 0.45 0.50 0.58 0.65 0.71 0.79 0.79 0.85 0.94 0.74 0.61 0.54 0.47 0.49 0.52 0.50 0.52 0.48 0.51 0.55 0.67 0.64 0.50 0.44 0.41 0.38 0.40 0.47 0.53 0.61 0.80 1.09 1.30 1.37
0.37 0.31 0.28 0.29 0.36 0.43 0.40 0.36 0.38 0.45 0.53 0.59 0.63 0.69 0.76 0.77 0.82 0.94 0.90 0.81 0.72 0.68 0.68 0.67 0.54 0.42 0.33 0.37 0.41 0.40 0.31 0.25 0.23 0.25 0.26 0.29 0.35 0.45 0.61 0.78 0.97 1.15 1.29
0.36 0.35 0.31 0.32 0.33 0.37 0.35 0.36 0.35 0.41 0.49 0.54 0.53 0.65 0.76 0.81 0.89 1.02 1.05 0.99 0.87 0.81 0.76 0.69 0.54 0.40 0.33 0.33 0.26 0.19 0.18 0.14 0.09 0.09 0.12 0.13 0.19 0.29 0.47 0.63 0.78 0.91 1.01
0.33 0.37 0.36 0.36 0.40 0.44 0.46 0.51 0.53 0.57 0.69 0.74 0.76 0.82 0.89 0.86 0.85 0.90 0.95 0.95 0.93 0.81 0.70 0.63 0.52 0.42 0.36 0.34 0.26 0.23 0.28 0.15 0.05 0.04 0.05 0.07 0.12 0.21 0.27 0.32 0.45 0.59 0.71
0.30 0.35 0.41 0.42 0.43 0.43 0.46 0.56 0.74 0.88 0.94 0.96 0.97 1.01 1.03 0.98 0.94 0.96 0.92 0.93 0.99 0.90 0.68 0.54 0.49 0.43 0.38 0.30 0.26 0.27 0.22 0.12 0.06 0.04 0.03 0.04 0.07 0.11 0.11 0.15 0.23 0.32 0.44
0.32 0.35 0.39 0.42 0.43 0.44 0.45 0.51 0.64 0.81 0.89 0.90 0.91 0.96 0.93 0.88 0.85 0.81 0.81 0.86 0.92 0.89 0.70 0.53 0.51 0.47 0.44 0.43 0.39 0.33 0.24 0.17 0.12 0.07 0.04 0.03 0.04 0.05 0.07 0.10 0.14 0.19 0.26
0.33 0.33 0.32 0.33 0.35 0.38 0.43 0.51 0.61 0.69 0.74 0.74 0.71 0.68 0.66 0.62 0.60 0.59 0.62 0.63 0.65 0.74 0.71 0.57 0.55 0.51 0.48 0.49 0.51 0.46 0.34 0.22 0.18 0.16 0.10 0.07 0.05 0.05 0.06 0.08 0.13 0.18 0.24
0.25 0.26 0.26 0.29 0.36 0.47 0.55 0.60 0.63 0.65 0.64 0.64 0.66 0.66 0.57 0.50 0.48 0.46 0.47 0.46 0.45 0.53 0.57 0.54 0.52 0.50 0.45 0.44 0.46 0.47 0.46 0.36 0.26 0.20 0.16 0.13 0.10 0.08 0.08 0.08 0.12 0.20 0.27
0.17 0.21 0.26 0.32 0.40 0.48 0.56 0.59 0.59 0.56 0.52 0.47 0.48 0.50 0.49 0.44 0.40 0.38 0.37 0.36 0.35 0.42 0.48 0.50 0.49 0.49 0.47 0.43 0.41 0.46 0.56 0.51 0.43 0.34 0.28 0.22 0.22 0.18 0.14 0.12 0.12 0.16 0.26
0.17 0.20 0.24 0.30 0.34 0.37 0.40 0.36 0.32 0.31 0.29 0.25 0.25 0.27 0.30 0.33 0.35 0.32 0.30 0.33 0.35 0.36 0.37 0.37 0.37 0.40 0.46 0.49 0.46 0.47 0.58 0.63 0.59 0.48 0.40 0.32 0.29 0.25 0.22 0.17 0.14 0.14 0.21
0.13 0.17 0.21 0.26 0.26 0.25 0.30 0.20 0.11 0.11 0.13 0.15 0.18 0.20 0.23 0.23 0.26 0.28 0.28 0.28 0.31 0.31 0.30 0.28 0.27 0.33 0.40 0.49 0.55 0.55 0.58 0.59 0.61 0.62 0.56 0.51 0.44 0.39 0.37 0.31 0.21 0.17 0.18
0.10 0.12 0.13 0.13 0.14 0.17 0.18 0.13 0.05 0.05 0.08 0.09 0.10 0.12 0.14 0.18 0.19 0.18 0.18 0.18 0.18 0.20 0.23 0.25 0.22 0.21 0.22 0.23 0.30 0.41 0.56 0.73 0.81 0.79 0.78 0.83 0.68 0.55 0.50 0.42 0.25 0.17 0.16
0.13 0.11 0.10 0.09 0.12 0.14 0.11 0.10 0.06 0.05 0.08 0.09 0.09 0.07 0.07 0.07 0.09 0.10 0.11 0.10 0.09 0.09 0.12 0.15 0.15 0.13 0.11 0.11 0.14 0.18 0.27 0.47 0.71 0.84 0.85 0.89 0.86 0.79 0.68 0.57 0.40 0.25 0.19
0.17 0.14 0.12 0.11 0.13 0.15 0.12 0.08 0.06 0.07 0.10 0.11 0.10 0.08 0.05 0.03 0.04 0.05 0.08 0.09 0.08 0.07 0.07 0.07 0.07 0.06 0.04 0.04 0.04 0.05 0.06 0.11 0.25 0.40 0.59 0.79 0.84 0.83 0.80 0.70 0.53 0.34 0.22
0.22 0.18 0.15 0.15 0.17 0.20 0.19 0.13 0.08 0.10 0.14 0.13 0.13 0.09 0.05 0.02 0.02 0.03 0.07 0.07 0.07 0.06 0.05 0.04 0.03 0.04 0.03 0.02 0.01 0.01 0.02 0.03 0.06 0.11 0.15 0.31 0.52 0.66 0.80 0.80 0.71 0.58 0.43